アトラス彗星

C/2021 S1 ( ATLAS )

English version
Home page
Updated on November 26, 2022

---------------------------------------------------------------------

・ プロフィール

発見日 2021年9月27日
発見光度 17.8等
発見者 Asteroid Terrestrial-Impact Last Alert System (ATLAS) search program

・ 写真集

・ 軌道要素

Epoch 2022 Aug. 9.0 TT = JDT 2459800.5
T 2022 Feb. 28.94329 TT                                 Rudenko
q   6.1192027            (2000.0)            P               Q
z  -0.0002229      Peri.  148.18600     -0.14239706     -0.71537953
 +/-0.0000028      Node   299.87608     +0.65865050     +0.44740513
e   1.0013639      Incl.   52.08429     +0.73885222     -0.53671294
>From 387 observations 2021 Sept. 27-2022 Nov. 2, mean residual 0".5.

・ 光度変化

        m1 = 6.5 + 5 logΔ + 10.0 log r

---------------------------------------------------------------------

軌道要素はM.P.E.C. 2022-V95に掲載されたものです。
光度グラフはComet for Windowsで作成したものです。

---------------------------------------------------------------------

Copyright(C) Seiichi Yoshida (comet@aerith.net). All rights reserved.